This demonstration page uses our WeatherBlox Daily Observations layout. Learn more.

Hourly Observations for February 29, 2020

Temp ( °F °C ) Dew Point ( °F °C ) Humidity (%) Winds ( mph kmh ) Pressure ( in mb ) Visibility ( mi km ) Precip ( " mm )
12:54 am 00:54 Clear 28 -2.2 25 -3.9 88 88 Calm 30.22 1024 8 12.87472 0 0
1:54 am 01:54 Clear 28 -2.2 25 -3.9 88 88 Calm 30.21 1023 8 12.87472 0 0
2:54 am 02:54 Clear 26 -3.3 23 -5 88 88 Calm 30.19 1022 8 12.87472 0 0
3:54 am 03:54 Clear 26 -3.3 22 -5.6 84 84 Calm 30.17 1022 8 12.87472 0 0
4:54 am 04:54 Clear with Mist and Fog 25 -3.9 22 -5.6 88 88 SSE 5 7 30.16 1021 6 9.65604 0 0
5:54 am 05:54 Clear 24 -4.4 21 -6.1 88 88 SSE 5 7 30.15 1021 8 12.87472 0 0
6:54 am 06:54 Clear 26 -3.3 20 -6.7 78 78 SSE 3 6 30.13 1020 10 16.0934 0 0
7:54 am 07:54 Sunny 27 -2.8 24 -4.4 89 89 SSE 6 9 30.13 1020 9 14.48406 0 0
8:54 am 08:54 Sunny 39 3.9 32 0 76 76 S 10 17 30.11 1020 10 16.0934 0 0
9:54 am 09:54 Sunny 46 7.8 30 -1.1 54 54 S 15 24 30.08 1019 10 16.0934 0 0
10:54 am 10:54 Sunny 52 11.1 28 -2.2 40 40 S 20 31 30.04 1017 10 16.0934 0 0
11:54 am 11:54 Sunny 57 13.9 27 -2.8 32 32 S 20 31 30 1016 10 16.0934 0 0
12:54 pm 12:54 Sunny 62 16.7 26 -3.3 25 25 S 20 31 29.93 1013 10 16.0934 0 0
1:54 pm 13:54 Sunny 65 18.3 26 -3.3 23 23 S 25 41 29.86 1011 10 16.0934 0 0
2:54 pm 14:54 Sunny 68 20 26 -3.3 21 21 S 26 43 29.82 1010 10 16.0934 0 0
3:54 pm 15:54 Sunny 67 19.4 27 -2.8 22 22 S 21 33 29.78 1009 10 16.0934 0 0
4:54 pm 16:54 Sunny 66 18.9 28 -2.2 24 24 S 25 41 29.78 1008 10 16.0934 0 0
5:54 pm 17:54 Sunny 65 18.3 27 -2.8 24 24 S 20 31 29.76 1008 10 16.0934 0 0
6:54 pm 18:54 Clear 58 14.4 28 -2.2 32 32 S 14 22 29.76 1008 10 16.0934 0 0
7:54 pm 19:54 Clear 53 11.7 29 -1.7 40 40 S 14 22 29.75 1008 10 16.0934 0 0
8:54 pm 20:54 Clear 52 11.1 29 -1.7 41 41 S 12 19 29.74 1007 10 16.0934 0 0
9:54 pm 21:54 Clear 50 10 30 -1.1 46 46 S 12 19 29.72 1007 10 16.0934 0 0
10:54 pm 22:54 Clear 50 10 31 -0.6 48 48 S 14 22 29.7 1006 10 16.0934 0 0
11:54 pm 23:54 Clear 50 10 30 -1.1 46 46 S 13 20 29.69 1006 10 16.0934 0 0

Powered by AerisWeather